Logansport, IN

4:17 PM EDT on April 20, 2018 (GMT -0400)
Logansport Municipal

Weather History for KGGP - May, 2013

Change the Weather History Date:

Wednesday, May 29, 2013

  Actual Average Record
Temperature  
Mean Temperature 73 °F -  
Max Temperature 82 °F 74 °F 86 °F (2015)
Min Temperature 64 °F 51 °F 53 °F (2017)
Cooling Degree Days 8    
Growing Degree Days 23 (Base 50)    
Moisture  
Dew Point 62 °F    
Average Humidity 67    
Maximum Humidity 88    
Minimum Humidity 51    
Precipitation  
Precipitation 0.00 in - - ()
Sea Level Pressure  
Sea Level Pressure 29.97 in    
Wind  
Wind Speed 12 mph (SSW)    
Max Wind Speed 18 mph    
Max Gust Speed 26 mph    
Visibility 10 miles    
Events      
Averages and records for this station are not official NWS values.
T = Trace of Precipitation, MM = Missing Value Source: NWS Daily Summary

Daily Weather History Graph

Daily Weather History Graph

Search for Another Location

Airport or City:

Astronomy

May. 29, 2013 Rise Set
Actual Time 6:17 AM EDT 9:08 PM EDT
Civil Twilight 5:45 AM EDT 9:40 PM EDT
Nautical Twilight 5:04 AM EDT 10:21 PM EDT
Astronomical Twilight 4:17 AM EDT 11:09 PM EDT
Moon 12:29 AM EDT (5/29) 11:17 AM EDT (5/29)
Length of Visible Light 15h 55m
Length of Day
14h 50m
Waning Gibbous, 73% of the Moon is Illuminated
May 29
Waning Gibbous
May 31
Last Quarter
Jun 8
New
Jun 16
First Quarter
Jun 23
Full

Hourly Weather History & Observations

Time (EDT) Temp. Heat Index Dew Point Humidity Pressure Visibility Wind Dir Wind Speed Gust Speed Precip Events Conditions
12:15 AM 71.6 °F - 64.4 °F 78% 29.92 in 10.0 mi SW 8.1 mph - N/A   Overcast
12:35 AM 71.6 °F - 64.4 °F 78% 29.94 in 10.0 mi WSW 11.5 mph 20.7 mph N/A   Mostly Cloudy
12:55 AM 71.6 °F - 62.6 °F 73% 29.93 in 10.0 mi SW 8.1 mph - N/A   Scattered Clouds
1:15 AM 71.6 °F - 62.6 °F 73% 29.93 in 10.0 mi SW 11.5 mph - N/A   Clear
1:35 AM 71.6 °F - 62.6 °F 73% 29.92 in 10.0 mi SSW 11.5 mph - N/A   Clear
1:55 AM 69.8 °F - 64.4 °F 83% 29.92 in 10.0 mi SSW 9.2 mph - N/A   Clear
2:15 AM 69.8 °F - 64.4 °F 83% 29.92 in 10.0 mi SSW 12.7 mph - N/A   Scattered Clouds
2:35 AM 69.8 °F - 64.4 °F 83% 29.92 in 10.0 mi South 10.4 mph - N/A   Scattered Clouds
2:55 AM 69.8 °F - 62.6 °F 78% 29.92 in 10.0 mi South 10.4 mph - N/A   Mostly Cloudy
3:15 AM 69.8 °F - 62.6 °F 78% 29.92 in 10.0 mi SSW 11.5 mph - N/A   Mostly Cloudy
3:35 AM 69.8 °F - 62.6 °F 78% 29.92 in 10.0 mi SSW 13.8 mph - N/A   Scattered Clouds
3:55 AM 69.8 °F - 60.8 °F 73% 29.92 in 10.0 mi SSW 12.7 mph - N/A   Clear
4:15 AM 69.8 °F - 60.8 °F 73% 29.93 in 10.0 mi SSW 11.5 mph - N/A   Clear
4:35 AM 69.8 °F - 60.8 °F 73% 29.94 in 10.0 mi SSW 13.8 mph - N/A   Clear
4:55 AM 68.0 °F - 60.8 °F 78% 29.93 in 10.0 mi SSW 11.5 mph - N/A   Scattered Clouds
5:15 AM 69.8 °F - 60.8 °F 73% 29.93 in 10.0 mi SSW 16.1 mph 19.6 mph N/A   Mostly Cloudy
5:35 AM 69.8 °F - 60.8 °F 73% 29.93 in 10.0 mi SSW 16.1 mph - N/A   Mostly Cloudy
5:55 AM 69.8 °F - 60.8 °F 73% 29.93 in 10.0 mi SSW 16.1 mph - N/A   Scattered Clouds
6:15 AM 68.0 °F - 59.0 °F 73% 29.93 in 10.0 mi SSW 15.0 mph - N/A   Clear
6:35 AM 68.0 °F - 59.0 °F 73% 29.94 in 10.0 mi SSW 17.3 mph - N/A   Clear
6:55 AM 68.0 °F - 59.0 °F 73% 29.95 in 10.0 mi SSW 18.4 mph 21.9 mph N/A   Clear
7:15 AM 68.0 °F - 59.0 °F 73% 29.96 in 10.0 mi SW 17.3 mph - N/A   Clear
7:35 AM 68.0 °F - 60.8 °F 78% 29.96 in 10.0 mi SSW 15.0 mph - N/A   Scattered Clouds
7:55 AM 69.8 °F - 60.8 °F 73% 29.97 in 10.0 mi SSW 13.8 mph - N/A   Scattered Clouds
8:15 AM 69.8 °F - 60.8 °F 73% 29.98 in 10.0 mi SW 12.7 mph - N/A   Scattered Clouds
8:35 AM 69.8 °F - 60.8 °F 73% 29.96 in 10.0 mi South 18.4 mph 23.0 mph N/A   Scattered Clouds
8:55 AM 69.8 °F - 60.8 °F 73% 29.98 in 10.0 mi SW 9.2 mph - N/A   Clear
9:15 AM 69.8 °F - 62.6 °F 78% 29.99 in 10.0 mi WSW 4.6 mph - N/A   Clear
9:35 AM 71.6 °F - 62.6 °F 73% 29.99 in 10.0 mi WSW 5.8 mph - N/A   Clear
9:55 AM 71.6 °F - 62.6 °F 73% 29.99 in 10.0 mi WSW 5.8 mph - N/A   Clear
10:15 AM 71.6 °F - 62.6 °F 73% 29.99 in 10.0 mi WSW 5.8 mph - N/A   Clear
10:35 AM 73.4 °F - 64.4 °F 73% 30.00 in 10.0 mi SW 10.4 mph - N/A   Clear
10:55 AM 77.0 °F - 62.6 °F 61% 30.00 in 10.0 mi WSW 16.1 mph 21.9 mph N/A   Clear
11:15 AM 77.0 °F - 62.6 °F 61% 30.01 in 10.0 mi SW 16.1 mph - N/A   Scattered Clouds
11:35 AM 77.0 °F - 64.4 °F 65% 30.01 in 10.0 mi SW 16.1 mph 20.7 mph N/A   Overcast
11:55 AM 77.0 °F - 64.4 °F 65% 30.02 in 10.0 mi SW 17.3 mph - N/A   Overcast
12:15 PM 77.0 °F - 64.4 °F 65% 30.02 in 10.0 mi SW 15.0 mph 23.0 mph N/A   Overcast
12:35 PM 78.8 °F - 64.4 °F 61% 30.02 in 10.0 mi SW 13.8 mph 18.4 mph N/A   Overcast
12:55 PM 78.8 °F - 64.4 °F 61% 30.02 in 10.0 mi SW 15.0 mph 23.0 mph N/A   Scattered Clouds
1:15 PM 80.6 °F 82.3 °F 64.4 °F 58% 30.02 in 10.0 mi SW 18.4 mph 21.9 mph N/A   Scattered Clouds
1:35 PM 80.6 °F 82.3 °F 64.4 °F 58% 30.01 in 10.0 mi SW 18.4 mph 26.5 mph N/A   Scattered Clouds
1:55 PM 78.8 °F - 64.4 °F 61% 30.01 in 10.0 mi WSW 15.0 mph 20.7 mph N/A   Mostly Cloudy
2:15 PM 80.6 °F 82.3 °F 64.4 °F 58% 30.01 in 10.0 mi WSW 15.0 mph 20.7 mph N/A   Scattered Clouds
2:35 PM 80.6 °F 82.3 °F 64.4 °F 58% 30.01 in 10.0 mi WSW 13.8 mph 18.4 mph N/A   Mostly Cloudy
2:55 PM 80.6 °F 81.8 °F 62.6 °F 54% 30.01 in 10.0 mi SW 18.4 mph 21.9 mph N/A   Mostly Cloudy
3:15 PM 82.4 °F 83.4 °F 62.6 °F 51% 30.01 in 10.0 mi SW 17.3 mph 21.9 mph N/A   Scattered Clouds
3:35 PM 82.4 °F 83.4 °F 62.6 °F 51% 30.01 in 10.0 mi SW 16.1 mph 19.6 mph N/A   Scattered Clouds
3:55 PM 82.4 °F 83.4 °F 62.6 °F 51% 30.01 in 10.0 mi SW 10.4 mph 13.8 mph N/A   Scattered Clouds
4:15 PM 80.6 °F 81.5 °F 60.8 °F 51% 29.99 in 10.0 mi SSW 12.7 mph 21.9 mph N/A   Scattered Clouds
4:35 PM 82.4 °F 83.4 °F 62.6 °F 51% 29.99 in 10.0 mi SSW 11.5 mph 19.6 mph N/A   Scattered Clouds
4:55 PM 80.6 °F 81.5 °F 60.8 °F 51% 29.99 in 10.0 mi SSW 15.0 mph 19.6 mph N/A   Clear
5:15 PM 82.4 °F 83.4 °F 62.6 °F 51% 29.99 in 10.0 mi SSW 13.8 mph 17.3 mph N/A   Scattered Clouds
5:35 PM 82.4 °F 83.4 °F 62.6 °F 51% 29.99 in 10.0 mi SSW 12.7 mph - N/A   Scattered Clouds
5:55 PM 80.6 °F 81.8 °F 62.6 °F 54% 29.98 in 10.0 mi SSW 11.5 mph - N/A   Scattered Clouds
6:15 PM 82.4 °F 83.4 °F 62.6 °F 51% 29.98 in 10.0 mi SSW 11.5 mph - N/A   Clear
6:35 PM 80.6 °F 81.8 °F 62.6 °F 54% 29.97 in 10.0 mi South 13.8 mph - N/A   Clear
6:55 PM 80.6 °F 81.8 °F 62.6 °F 54% 29.97 in 10.0 mi South 11.5 mph 15.0 mph N/A   Scattered Clouds
7:15 PM 80.6 °F 81.5 °F 60.8 °F 51% 29.96 in 10.0 mi South 13.8 mph - N/A   Clear
7:35 PM 78.8 °F - 60.8 °F 54% 29.96 in 10.0 mi South 12.7 mph - N/A   Clear
7:55 PM 78.8 °F - 60.8 °F 54% 29.97 in 10.0 mi South 11.5 mph - N/A   Clear
8:15 PM 77.0 °F - 60.8 °F 57% 29.97 in 10.0 mi South 8.1 mph - N/A   Clear
8:35 PM 75.2 °F - 60.8 °F 61% 29.97 in 10.0 mi South 6.9 mph - N/A   Clear
8:55 PM 75.2 °F - 59.0 °F 57% 29.97 in 10.0 mi South 8.1 mph - N/A   Clear
9:15 PM 75.2 °F - 59.0 °F 57% 29.97 in 10.0 mi South 8.1 mph - N/A   Clear
9:35 PM 71.6 °F - 60.8 °F 69% 29.97 in 10.0 mi South 5.8 mph - N/A   Clear
9:55 PM 69.8 °F - 60.8 °F 73% 29.98 in 10.0 mi South 5.8 mph - N/A   Clear
10:15 PM 69.8 °F - 60.8 °F 73% 29.98 in 10.0 mi South 5.8 mph - N/A   Clear
10:35 PM 68.0 °F - 60.8 °F 78% 29.98 in 10.0 mi SE 5.8 mph - N/A   Clear
10:55 PM 68.0 °F - 60.8 °F 78% 29.98 in 10.0 mi SE 3.5 mph - N/A   Clear
11:15 PM 64.4 °F - 60.8 °F 88% 29.99 in 10.0 mi SE 3.5 mph - N/A   Clear
11:35 PM 68.0 °F - 60.8 °F 78% 29.99 in 10.0 mi SE 5.8 mph - N/A   Clear
11:55 PM 66.2 °F - 60.8 °F 83% 29.99 in 10.0 mi SSE 6.9 mph - N/A   Clear